| time (UTC) | temp F | wind direction | speed knots | gust knots | rain 1hr in | rain 24hr in | rain mn in | humidity % | barometer mb |
| 20260507054723 | 46 | 48 | 3.5 | 7.0 | 0.00 | 0.00 | 0.00 | 38 | 1015.6 |
| 20260507052724 | 46 | 49 | 5.2 | 10.4 | 0.00 | 0.00 | 0.00 | 38 | 1015.6 |
| 20260507050723 | 44 | 53 | 6.1 | 10.4 | 0.00 | 0.00 | 0.00 | 44 | 1015.6 |
| 20260507044723 | 43 | 43 | 7.0 | 11.3 | 0.00 | 0.00 | 0.00 | 43 | 1015.6 |
| 20260507042723 | 41 | 35 | 7.0 | 11.3 | 0.00 | 0.00 | 0.00 | 47 | 1015.7 |
| 20260507040724 | 38 | 28 | 5.2 | 9.6 | 0.00 | 0.00 | 0.00 | 52 | 1015.7 |
| 20260507034723 | 35 | 29 | 5.2 | 8.7 | 0.00 | 0.00 | 0.00 | 62 | 1015.6 |
| 20260507030723 | 31 | 23 | 5.2 | 7.8 | 0.00 | 0.00 | 0.00 | 77 | 1015.4 |
| 20260507024723 | 31 | 18 | 4.3 | 6.1 | 0.00 | 0.00 | 0.00 | 73 | 1015.4 |
| 20260507022723 | 31 | 21 | 5.2 | 7.0 | 0.00 | 0.00 | 0.00 | 74 | 1015.4 |
| 20260507020723 | 31 | 20 | 4.3 | 5.2 | 0.00 | 0.00 | 0.00 | 76 | 1015.5 |
| 20260507014723 | 32 | 28 | 5.2 | 7.0 | 0.00 | 0.00 | 0.00 | 72 | 1015.3 |
| 20260507012722 | 33 | 31 | 6.1 | 8.7 | 0.00 | 0.00 | 0.00 | 66 | 1015.3 |
| 20260507010723 | 33 | 27 | 7.0 | 8.7 | 0.00 | 0.00 | 0.00 | 69 | 1015.3 |
| 20260507004722 | 35 | 22 | 6.1 | 9.6 | 0.00 | 0.00 | 0.00 | 61 | 1015.2 |
| 20260507002723 | 34 | 25 | 6.1 | 8.7 | 0.00 | 0.00 | 0.00 | 65 | 1015.2 |
| 20260507000723 | 34 | 19 | 7.0 | 9.6 | 0.00 | 0.00 | 0.00 | 67 | 1015.1 |
| 20260506234723 | 34 | 21 | 5.2 | 8.7 | 0.00 | 0.00 | 0.00 | 70 | 1015.1 |
| 20260506232722 | 35 | 15 | 6.1 | 7.8 | 0.00 | 0.00 | 0.00 | 69 | 1015.0 |
| 20260506230724 | 35 | 19 | 5.2 | 7.8 | 0.00 | 0.00 | 0.00 | 74 | 1015.1 |
| 20260506224722 | 35 | 9 | 5.2 | 7.0 | 0.00 | 0.00 | 0.00 | 77 | 1015.0 |
| 20260506222723 | 35 | 2 | 5.2 | 7.0 | 0.00 | 0.00 | 0.00 | 88 | 1014.9 |
| 20260506220723 | 36 | 355 | 6.1 | 7.8 | 0.00 | 0.00 | 0.00 | 89 | 1014.8 |
| 20260506214722 | 36 | 359 | 7.0 | 7.8 | 0.00 | 0.00 | 0.00 | 89 | 1014.7 |
| 20260506210722 | 37 | 313 | 2.6 | 3.5 | 0.00 | 0.00 | 0.00 | 85 | 1014.5 |
| 20260506204722 | 38 | 276 | 1.7 | 1.7 | 0.00 | 0.00 | 0.00 | 83 | 1014.4 |
| 20260506202722 | 39 | 216 | 1.7 | 3.5 | 0.00 | 0.00 | 0.00 | 81 | 1014.4 |
| 20260506200722 | 40 | 159 | 2.6 | 4.3 | 0.00 | 0.00 | 0.00 | 76 | 1014.4 |
| 20260506194722 | 41 | 266 | 1.7 | 3.5 | 0.00 | 0.00 | 0.00 | 77 | 1014.3 |
| 20260506192721 | 42 | 209 | 0.9 | 2.6 | 0.00 | 0.00 | 0.00 | 72 | 1014.2 |
| 20260506190722 | 43 | 176 | 2.6 | 3.5 | 0.00 | 0.00 | 0.00 | 70 | 1014.2 |
| 20260506184721 | 44 | 160 | 2.6 | 4.3 | 0.00 | 0.00 | 0.00 | 65 | 1014.1 |
| 20260506175050 | 49 | 207 | 7.0 | 9.6 | 0.00 | 0.00 | 0.00 | 42 | 1014.0 |
| 20260506170721 | 49 | 216 | 7.8 | 13.9 | 0.00 | 0.00 | 0.00 | 43 | 1013.8 |
| 20260506164720 | 49 | 209 | 9.6 | 13.0 | 0.00 | 0.00 | 0.00 | 42 | 1013.8 |
| 20260506162721 | 49 | 206 | 10.4 | 14.8 | 0.00 | 0.00 | 0.00 | 42 | 1013.7 |
| 20260506160721 | 50 | 207 | 9.6 | 15.6 | 0.00 | 0.00 | 0.00 | 40 | 1013.8 |
| 20260506154722 | 50 | 215 | 10.4 | 14.8 | 0.00 | 0.00 | 0.00 | 42 | 1013.8 |
| 20260506152721 | 50 | 215 | 10.4 | 17.4 | 0.00 | 0.00 | 0.00 | 42 | 1013.8 |
| 20260506150721 | 50 | 216 | 11.3 | 18.2 | 0.00 | 0.00 | 0.00 | 42 | 1013.8 |
| 20260506145048 | 50 | 204 | 12.2 | 18.2 | 0.00 | 0.00 | 0.00 | 41 | 1013.9 |
| 20260506142720 | 51 | 203 | 13.0 | 18.2 | 0.00 | 0.00 | 0.00 | 39 | 1014.0 |
| 20260506140720 | 52 | 228 | 8.7 | 12.2 | 0.00 | 0.00 | 0.00 | 36 | 1013.9 |
| 20260506134720 | 52 | 209 | 10.4 | 17.4 | 0.00 | 0.00 | 0.00 | 38 | 1013.9 |
| 20260506132720 | 51 | 208 | 13.9 | 18.2 | 0.00 | 0.00 | 0.00 | 38 | 1013.9 |
| 20260506130720 | 51 | 227 | 13.9 | 19.1 | 0.00 | 0.00 | 0.00 | 37 | 1013.8 |
| 20260506124720 | 53 | 206 | 12.2 | 22.6 | 0.00 | 0.00 | 0.00 | 39 | 1013.8 |
| 20260506122720 | 53 | 203 | 15.6 | 21.7 | 0.00 | 0.00 | 0.00 | 39 | 1013.8 |
| 20260506120720 | 52 | 195 | 14.8 | 22.6 | 0.00 | 0.00 | 0.00 | 42 | 1013.6 |
| 20260506114721 | 50 | 187 | 9.6 | 18.2 | 0.00 | 0.00 | 0.00 | 50 | 1013.7 |
| 20260506112720 | 50 | 215 | 10.4 | 18.2 | 0.00 | 0.00 | 0.00 | 48 | 1013.7 |
| 20260506110721 | 51 | 302 | 5.2 | 10.4 | 0.00 | 0.00 | 0.00 | 28 | 1013.7 |
| 20260506104721 | 54 | 233 | 7.0 | 15.6 | 0.00 | 0.00 | 0.00 | 26 | 1013.5 |
| 20260506102721 | 50 | 272 | 7.0 | 13.9 | 0.00 | 0.00 | 0.00 | 28 | 1013.5 |
| 20260506100721 | 52 | 293 | 5.2 | 10.4 | 0.00 | 0.00 | 0.00 | 29 | 1013.4 |
| 20260506094721 | 51 | 314 | 7.8 | 13.0 | 0.00 | 0.00 | 0.00 | 30 | 1013.3 |
| 20260506092720 | 49 | 311 | 7.8 | 14.8 | 0.00 | 0.00 | 0.00 | 31 | 1013.3 |
| 20260506090720 | 51 | 272 | 7.8 | 13.9 | 0.00 | 0.00 | 0.00 | 32 | 1013.1 |
| 20260506084721 | 50 | 267 | 8.7 | 15.6 | 0.00 | 0.00 | 0.00 | 31 | 1013.0 |
| 20260506082721 | 49 | 255 | 6.1 | 11.3 | 0.00 | 0.00 | 0.00 | 33 | 1013.1 |
| 20260506080720 | 48 | 276 | 7.0 | 13.9 | 0.00 | 0.00 | 0.00 | 36 | 1013.0 |
| 20260506072721 | 47 | 286 | 9.6 | 14.8 | 0.00 | 0.00 | 0.00 | 44 | 1012.7 |
| 20260506070720 | 47 | 313 | 8.7 | 15.6 | 0.00 | 0.00 | 0.00 | 46 | 1012.6 |
| 20260506060720 | 44 | 290 | 8.7 | 12.2 | 0.00 | 0.00 | 0.00 | 58 | 1012.3 |